Alpha, California Weather observations

Data are for observation ending at time listed.
 Day   Time    Ave.   Ave.  Ave.  Vector   Max.   Stn.    Total    Solar   Ave.   Snow 
  of    of     Air    Rel.  Wind   Wind    Wind   Baro.  Precip.   Rad.    Soil   Depth
Year   Day     Temp.  Hum.  Speed  Dir.    Gust   Pres.                    Temp.       
2015   (PST)    F      %     mph   deg.    mph     mb.     in.     W/m2     F      in. 
---------------------------------------------------------------------------------------  
 186    5:40   59.0    56    2.5   148      4.7   789.5    0.00      55    999.0  162.0
 186    5:50   59.7    55    2.6   144      4.7   789.6    0.00      63    999.0  162.0
 186    6:00   60.4    54    2.6   140      4.5   789.6    0.00     101    999.0  162.2
 186    6:10   60.9    54    2.8   156      6.3   789.6    0.00     122    999.0  162.2
 186    6:20   61.3    54    2.6   138      4.5   789.7    0.00     143    999.0  162.2
 186    6:30   61.8    54    2.3   141      4.2   789.7    0.00     161    999.0  162.2
 186    6:40   62.2    54    2.8   160      5.3   789.8    0.00     172    999.0  162.2
 186    6:50   61.7    54    4.7   177      8.6   789.8    0.00      42    999.0  162.2
 186    7:00   61.8    55    3.0   168      6.5   789.9    0.00      55    999.0  162.2
 186    7:10   61.4    56    4.1   180      6.6   790.0    0.00      63    999.0  162.1
 186    7:20   61.3    57    3.7   177      7.6   790.1    0.00     256    999.0  162.0
 186    7:30   61.7    57    4.7   191      7.7   790.1    0.00     311    999.0  161.9
 186    7:40   62.1    56    4.6   189      7.3   790.1    0.00     335    999.0  162.0
 186    7:50   62.4    55    5.5   193      9.7   790.2    0.00     360    999.0  162.1
 186    8:00   62.7    55    4.9   196      9.8   790.2    0.00     383    999.0  161.9
 186    8:10   62.8    55    5.2   194      9.2   790.3    0.00     406    999.0  161.9
 186    8:20   63.2    54    4.9   201      8.7   790.3    0.00     429    999.0  161.9
 186    8:30   63.5    52    4.5   202      9.5   790.3    0.00     450    999.0  161.1
 186    8:40   63.9    49    4.0   203      7.4   790.4    0.00     470    999.0  160.7
 186    8:50   64.3    46    3.1   224      7.7   790.4    0.00     490    999.0  159.8
 186    9:00   64.4    44    3.2   227      8.0   790.4    0.00     509    999.0  158.1
 186    9:10   65.1    44    3.3   226      7.0   790.5    0.00     526    999.0  159.8
 186    9:20   65.2    44    2.5   235      6.1   790.5    0.00     546    999.0  161.5
 186    9:30   65.4    40    2.3   271      7.1   790.6    0.00     567    999.0   86.3
 186    9:40   65.3    42    4.2   223      8.5   790.7    0.00     576    999.0  144.2
 186    9:50   65.4    44    3.2   228      8.3   790.7    0.00     600    999.0  161.9
 186   10:00   66.2    44    2.1   252      8.9   790.6    0.00     605    999.0  161.9
 186   10:10   66.1    44    3.3   226      9.2   790.7    0.00     620    999.0  161.9
 186   10:20   66.6    44    2.4   256      8.2   790.8    0.00     635    999.0  161.9
 186   10:30   67.1    44    2.3   258      6.9   790.8    0.00     646    999.0  161.9
 186   10:40   66.5    43    2.0   254      8.2   790.8    0.00     649    999.0  161.9
 186   10:50   67.0    43    3.1   249      8.9   790.9    0.00     679    999.0  117.2
 186   11:00   67.0    43    3.1   238      6.3   790.9    0.00     694    999.0  161.9
 186   11:10   67.0    44    3.7   236      9.1   790.9    0.00     659    999.0  161.9
 186   11:20   67.1    43    3.2   243     10.7   790.9    0.00     694    999.0  161.9
 186   11:30   67.7    43    2.8   266      6.6   790.9    0.00     707    999.0  161.9
 186   11:40   68.2    42    2.5   272     11.5   790.9    0.00     700    999.0  161.8
 186   11:50   68.2    42    3.3   255      7.9   790.9    0.00     696    999.0  161.8
 186   12:00   67.8    41    2.2   291      6.6   790.8    0.00     703    999.0  146.9
 186   12:10   68.7    43    2.6   249      8.9   790.8    0.00     711    999.0  161.8
 186   12:20   68.2    40    3.6   233      7.1   790.8    0.00     713    999.0  161.8
 186   12:30   68.6    42    1.9   300      6.5   790.7    0.00     708    999.0  161.0
 186   12:40   68.8    41    1.8   280      4.1   790.7    0.00     556    999.0  147.6
 186   12:50   68.8    42    2.9   197      8.9   790.6    0.00     685    999.0  161.8
 186   13:00   69.4    42    2.9   273      8.5   790.6    0.00     647    999.0  146.9
 186   13:10   69.5    43    2.3   299      6.8   790.6    0.00     587    999.0  131.3
 186   13:20   70.3    44    2.2   235      8.6   790.5    0.00     694    999.0  103.0
 186   13:30   71.0    42    2.4   269      7.0   790.4    0.00     659    999.0  161.8
 186   13:40   69.9    40    2.4   258      8.5   790.3    0.00     511    999.0  161.8
 186   13:50   69.6    41    4.2   238      9.7   790.3    0.00     633    999.0  161.8
 186   14:00   69.7    41    1.9   266      5.7   790.3    0.00     625    999.0  116.5
 186   14:10   70.0    42    3.1   243      7.7   790.3    0.00     453    999.0  103.1
 186   14:20   69.0    41    5.1   212     12.6   790.3    0.00     168    999.0  161.8
 186   14:30   68.3    44    3.5   210      7.0   790.2    0.00     104    999.0  161.7
 186   14:40   70.1    42    3.4   254      8.3   790.2    0.00     103    999.0  161.9
 186   14:50   70.0    43    3.7   247      9.7   790.1    0.00     207    999.0  161.9
 186   15:00   69.8    41    4.4   247      9.8   790.0    0.00      88    999.0  161.7
 186   15:10   69.3    42    4.5   254     12.7   790.0    0.00     176    999.0  161.7
 186   15:20   69.3    43    3.6   258      9.3   789.9    0.00     169    999.0  161.9
 186   15:30   69.9    43    3.6   245      7.8   789.9    0.00      43    999.0  162.0
 186   15:40   70.0    43    2.8   255     11.3   790.0    0.00     169    999.0  162.0
 186   15:50   70.5    42    3.5   245      9.4   790.0    0.00      88    999.0  161.9
 186   16:00   69.1    44    2.9   253      8.5   790.0    0.00      67    999.0  162.0
 186   16:10   69.3    44    2.9   262      7.8   790.0    0.00      61    999.0  162.0
 186   16:20   68.7    46    3.7   250      9.7   790.0    0.00     102    999.0  162.1
 186   16:30   69.0    46    2.1   271      7.4   790.0    0.00     217    999.0  162.2
 186   16:40   70.0    45    1.9   296      7.6   790.0    0.00     223    999.0  162.1
 186   16:50   69.3    45    2.4   272      6.3   790.0    0.00     122    999.0  162.1
 186   17:00   68.8    47    2.1   269      8.0   790.0    0.00      36    999.0  162.2
 186   17:10   69.4    45    1.9   285      5.0   789.9    0.00     217    999.0  162.2
 186   17:20   69.4    44    1.9   311      6.1   790.0    0.00     215    999.0  162.1
 186   17:30   69.1    44    1.5   317      5.2   790.1    0.00     164    999.0  162.1
 186   17:40   68.0    46    2.1   313      7.0   790.1    0.00     160    999.0  162.0
 186   17:50   68.0    47    1.8   310      5.6   790.0    0.00     146    999.0  161.9
 186   18:00   67.0    48    2.0   311      7.0   790.1    0.00     125    999.0  161.9
 186   18:10   66.0    50    2.2   321      6.1   790.2    0.00      85    999.0  161.9
 186   18:20   65.3    52    2.1   317      5.6   790.3    0.00      43    999.0  162.1
 186   18:30   64.9    52    1.9   326      6.2   790.3    0.00      17    999.0  162.2
 186   18:40   64.5    53    1.3   330      3.4   790.3    0.00      12    999.0  162.2
 186   18:50   63.9    54    1.3   331      3.5   790.2    0.00      10    999.0  162.2
 186   19:00   63.3    56    1.5   330      3.4   790.3    0.00       9    999.0  162.1
 186   19:10   62.4    57    1.6   330      3.1   790.2    0.00       4    999.0  162.0
 186   19:20   61.4    60    1.5   331      2.1   790.2    0.00       4    999.0  162.0
 186   19:30   60.7    61    1.6   338      2.0   790.2    0.00       2    999.0  162.0
 186   19:40   60.2    62    1.5   338      2.0   790.3    0.00       1    999.0  162.0
 186   19:50   60.0    62    1.5   340      2.1   790.3    0.00       0    999.0  116.8
 186   20:00   59.8    63    1.4   338      1.8   790.4    0.00       0    999.0   14.8
 186   20:10   59.7    63    1.4   342      2.0   790.5    0.00       0    999.0   13.4
 186   20:20   59.7    63    1.3   341      1.8   790.5    0.00       0    999.0   12.3
 186   20:30   59.6    63    1.4   340      1.8   790.7    0.00       0    999.0   12.7
 186   20:40   59.5    63    1.1   340      1.5   790.7    0.00       0    999.0   13.8
 186   20:50   59.4    63    1.4   351      2.3   790.8    0.00       0    999.0   13.9
 186   21:00   59.3    63    1.7   358      2.5   790.8    0.00       0    999.0   13.2
 186   21:10   59.5    63    1.0   353      2.0   790.9    0.00       0    999.0   11.3
 186   21:20   59.5    62    0.0   354      0.3   791.0    0.00       0    999.0   10.8
 186   21:30   60.0    58    0.0     0      0.0   790.9    0.00       0    999.0    9.5
 186   21:40   60.3    57    0.1   124      1.4   791.0    0.00       0    999.0   12.7
 186   21:50   60.0    59    0.4    96      1.3   791.0    0.00       0    999.0   14.7
 186   22:00   59.6    60    0.4   106      1.3   791.0    0.00       0    999.0    9.7
 186   22:10   59.6    60    0.8   114      1.3   791.1    0.00       0    999.0   11.3
 186   22:20   59.8    59    0.3   107      1.1   791.2    0.00       0    999.0    9.8
 186   22:30   60.1    58    0.6   140      1.5   791.2    0.00       0    999.0    9.3
 186   22:40   60.2    58    0.6   160      1.8   791.1    0.00       0    999.0   10.8
 186   22:50   60.1    58    0.2   153      0.9   791.1    0.00       0    999.0   11.8
 186   23:00   59.8    59    0.2   130      1.0   791.1    0.00       0    999.0   12.3
 186   23:10   59.8    59    0.2   143      1.1   791.1    0.00       0    999.0   14.2
 186   23:20   59.8    59    0.3   143      0.9   791.1    0.00       0    999.0   13.9
 186   23:30   59.7    59    0.4   134      1.2   791.1    0.00       0    999.0   14.6
 186   23:40   59.8    58    0.4   151      0.9   791.1    0.00       0    999.0   14.3
 186   23:50   59.7    59    0.7   159      2.4   791.0    0.00       0    999.0   14.4
 187    0:00   59.6    60    0.5   180      1.8   791.1    0.00       0    999.0   14.5
 187    0:10   59.4    61    1.1   161      2.9   791.1    0.00       0    999.0   15.6
 187    0:20   59.6    60    1.2   220      2.4   791.0    0.00       0    999.0   16.1
 187    0:30   59.2    60    0.3   301      1.0   791.1    0.00       0    999.0   16.9
 187    0:40   58.8    62    0.6   309      1.1   791.1    0.00       0    999.0   17.1
 187    0:50   58.8    62    0.9   294      1.6   791.1    0.00       0    999.0   17.0
 187    1:00   58.9    61    0.9   284      1.5   791.1    0.00       0    999.0   16.8
 187    1:10   58.8    61    0.6   265      2.4   791.1    0.00       0    999.0   16.8
 187    1:20   58.8    59    2.1   247      3.9   791.1    0.00       0    999.0   15.9
 187    1:30   58.9    58    1.8   248      3.8   791.1    0.00       0    999.0   14.9
 187    1:40   58.8    58    1.6   242      3.1   791.1    0.00       0    999.0   15.7
 187    1:50   58.7    58    1.3   234      2.0   791.2    0.00       0    999.0   15.8
 187    2:00   58.7    58    1.8   230      3.1   791.1    0.00       0    999.0   15.5
 187    2:10   58.7    59    0.8   245      2.6   791.0    0.00       0    999.0   15.2
 187    2:20   58.2    60    0.6   280      1.1   791.0    0.00       0    999.0   15.1
 187    2:30   57.9    60    0.4   297      1.5   791.0    0.00       0    999.0   29.1
 187    2:40   57.8    60    0.6   301      1.5   791.0    0.00       0    999.0   15.0
 187    2:50   57.7    60    0.3   307      1.0   791.0    0.00       0    999.0   14.3
 187    3:00   57.7    60    0.8   297      1.3   791.0    0.00       0    999.0   15.5
 187    3:10   57.7    60    1.1   247      2.7   791.0    0.00       0    999.0   14.1
 187    3:20   57.9    60    1.7   248      2.8   791.0    0.00       0    999.0   13.5
 187    3:30   57.8    60    1.2   254      2.6   791.0    0.00       0    999.0   11.9
 187    3:40   57.5    61    0.2   276      1.1   791.1    0.00       0    999.0   12.0
 187    3:50   57.5    61    0.0     0      0.0   791.1    0.00       0    999.0   12.7
 187    4:00   57.3    62    0.5   155      1.3   791.1    0.00       0    999.0   12.5
 187    4:10   57.5    62    0.0     0      0.0   791.2    0.00       0    999.0  133.0
 187    4:20   57.3    63    0.8   163      1.9   791.2    0.00       0    999.0  162.0
 187    4:30   57.0    64    0.1   178      1.1   791.2    0.00       0    999.0  162.0
 187    4:40   56.6    63    0.1   295      0.8   791.4    0.00       1    999.0  161.9
 187    4:50   56.8    63    0.5   305      1.2   791.4    0.00       2    999.0  161.7
 187    5:00   57.0    63    0.2   308      0.8   791.5    0.00       4    999.0  145.9
 187    5:10   57.0    63    0.7   296      1.7   791.5    0.00       8    999.0   58.5
 187    5:20   57.1    62    0.6   294      1.3   791.6    0.00      14    999.0   56.9
 187    5:30   57.3    62    0.3   255      1.4   791.6    0.00      17    999.0   14.9

Return to Alpha graphs page.


Western Regional Climate Center,wrcc@dri.edu